| time (UTC) | temp C | wind direction | speed KPH | gust KPH | rain 1hr cm | rain 24hr cm | rain mn cm | humidity % | barometer mb |
| 20260505125017 | 16 | 315 | 4.8 | 8.0 | 0.00 | 0.00 | 0.00 | 82 | 1019.0 |
| 20260505124017 | 16 | 23 | 1.6 | 4.8 | 0.00 | 0.00 | 0.00 | 84 | 1019.0 |
| 20260505123017 | 15 | 23 | 1.6 | 3.2 | 0.00 | 0.00 | 0.00 | 88 | 1018.8 |
| 20260505122017 | 14 | 23 | 1.6 | 4.8 | 0.00 | 0.00 | 0.00 | 93 | 1018.8 |
| 20260505121017 | 12 | 0.0 | 1.6 | 0.00 | 0.00 | 0.00 | 93 | 1018.7 | |
| 20260505120037 | 12 | 0.0 | 0.0 | 0.00 | 0.00 | 0.00 | 93 | 1018.7 | |
| 20260505115017 | 11 | 0.0 | 1.6 | 0.00 | 0.00 | 0.00 | 93 | 1018.6 | |
| 20260505114017 | 10 | 0.0 | 0.0 | 0.00 | 0.00 | 0.00 | 92 | 1018.5 | |
| 20260505113017 | 10 | 0.0 | 0.0 | 0.00 | 0.00 | 0.00 | 92 | 1018.5 | |
| 20260505112017 | 9 | 23 | 1.6 | 3.2 | 0.00 | 0.00 | 0.00 | 91 | 1018.3 |
| 20260505111017 | 9 | 0.0 | 0.0 | 0.00 | 0.00 | 0.00 | 91 | 1018.3 | |
| 20260505102017 | 9 | 0.0 | 0.0 | 0.00 | 0.00 | 0.00 | 90 | 1017.9 | |
| 20260505101017 | 10 | 0.0 | 0.0 | 0.00 | 0.00 | 0.00 | 90 | 1017.9 | |
| 20260505100016 | 10 | 0.0 | 0.0 | 0.00 | 0.00 | 0.00 | 89 | 1017.9 | |
| 20260505095017 | 10 | 0.0 | 0.0 | 0.00 | 0.00 | 0.00 | 89 | 1017.9 | |
| 20260505094017 | 10 | 0.0 | 0.0 | 0.00 | 0.00 | 0.00 | 89 | 1017.8 | |
| 20260505093017 | 10 | 0.0 | 0.0 | 0.00 | 0.00 | 0.00 | 88 | 1017.7 | |
| 20260505092017 | 10 | 0.0 | 0.0 | 0.00 | 0.00 | 0.00 | 88 | 1017.7 | |
| 20260505091017 | 10 | 0.0 | 0.0 | 0.00 | 0.00 | 0.00 | 87 | 1017.6 | |
| 20260505090017 | 10 | 0.0 | 0.0 | 0.00 | 0.00 | 0.00 | 87 | 1017.5 | |
| 20260505085016 | 10 | 0.0 | 0.0 | 0.00 | 0.00 | 0.00 | 87 | 1017.6 | |
| 20260505084037 | 10 | 0.0 | 0.0 | 0.00 | 0.00 | 0.00 | 85 | 1017.5 | |
| 20260505083017 | 11 | 0.0 | 0.0 | 0.00 | 0.00 | 0.00 | 85 | 1017.6 | |
| 20260505082017 | 11 | 0.0 | 0.0 | 0.00 | 0.00 | 0.00 | 85 | 1017.5 | |
| 20260505081037 | 11 | 0.0 | 0.0 | 0.00 | 0.00 | 0.00 | 84 | 1017.4 | |
| 20260505080017 | 11 | 0.0 | 0.0 | 0.00 | 0.00 | 0.00 | 84 | 1017.4 | |
| 20260505075016 | 11 | 0.0 | 0.0 | 0.00 | 0.00 | 0.00 | 83 | 1017.5 | |
| 20260505074016 | 11 | 0.0 | 0.0 | 0.00 | 0.00 | 0.00 | 83 | 1017.4 | |
| 20260505073017 | 12 | 0.0 | 0.0 | 0.00 | 0.00 | 0.00 | 82 | 1017.3 | |
| 20260505072057 | 12 | 0.0 | 0.0 | 0.00 | 0.00 | 0.00 | 80 | 1017.3 | |
| 20260505071017 | 12 | 0.0 | 0.0 | 0.00 | 0.00 | 0.00 | 79 | 1017.4 | |
| 20260505070017 | 13 | 0.0 | 0.0 | 0.00 | 0.00 | 0.00 | 78 | 1017.3 | |
| 20260505065016 | 13 | 0.0 | 0.0 | 0.00 | 0.00 | 0.00 | 78 | 1017.4 | |
| 20260505064016 | 13 | 0.0 | 0.0 | 0.00 | 0.00 | 0.00 | 78 | 1017.5 | |
| 20260505063036 | 13 | 0.0 | 0.0 | 0.00 | 0.00 | 0.00 | 78 | 1017.5 | |
| 20260505062016 | 13 | 0.0 | 0.0 | 0.00 | 0.00 | 0.00 | 77 | 1017.5 | |
| 20260505061016 | 14 | 0.0 | 0.0 | 0.00 | 0.00 | 0.00 | 76 | 1017.6 | |
| 20260505060016 | 14 | 0.0 | 1.6 | 0.00 | 0.00 | 0.00 | 75 | 1017.8 | |
| 20260505055016 | 14 | 0.0 | 0.0 | 0.00 | 0.00 | 0.00 | 74 | 1017.7 | |
| 20260505054016 | 15 | 0.0 | 0.0 | 0.00 | 0.00 | 0.00 | 74 | 1017.6 | |
| 20260505053016 | 15 | 0.0 | 1.6 | 0.00 | 0.00 | 0.00 | 73 | 1017.9 | |
| 20260505052036 | 15 | 0.0 | 0.0 | 0.00 | 0.00 | 0.00 | 72 | 1017.9 | |
| 20260505051016 | 15 | 0.0 | 1.6 | 0.00 | 0.00 | 0.00 | 72 | 1017.9 | |
| 20260505041016 | 16 | 0.0 | 1.6 | 0.00 | 0.00 | 0.00 | 68 | 1018.2 | |
| 20260505040016 | 16 | 0.0 | 1.6 | 0.00 | 0.00 | 0.00 | 68 | 1018.2 | |
| 20260505035016 | 16 | 0.0 | 3.2 | 0.00 | 0.00 | 0.00 | 67 | 1018.2 | |
| 20260505034017 | 16 | 0.0 | 1.6 | 0.00 | 0.00 | 0.00 | 66 | 1018.2 | |
| 20260505033017 | 16 | 0.0 | 1.6 | 0.00 | 0.00 | 0.00 | 65 | 1018.3 | |
| 20260505032016 | 17 | 0.0 | 3.2 | 0.00 | 0.00 | 0.00 | 65 | 1018.4 | |
| 20260505031017 | 17 | 0.0 | 4.8 | 0.00 | 0.00 | 0.00 | 64 | 1018.4 | |
| 20260505030017 | 17 | 0.0 | 4.8 | 0.00 | 0.00 | 0.00 | 64 | 1018.3 | |
| 20260505025016 | 17 | 0.0 | 3.2 | 0.00 | 0.00 | 0.00 | 63 | 1018.3 | |
| 20260505024016 | 17 | 0.0 | 1.6 | 0.00 | 0.00 | 0.00 | 62 | 1018.3 | |
| 20260505023016 | 17 | 0.0 | 1.6 | 0.00 | 0.00 | 0.00 | 62 | 1018.3 | |
| 20260505022016 | 18 | 0.0 | 4.8 | 0.00 | 0.00 | 0.00 | 62 | 1018.2 | |
| 20260505021016 | 18 | 0.0 | 1.6 | 0.00 | 0.00 | 0.00 | 61 | 1018.1 | |
| 20260505020016 | 18 | 0.0 | 4.8 | 0.00 | 0.00 | 0.00 | 60 | 1017.9 | |
| 20260505015016 | 18 | 0.0 | 4.8 | 0.00 | 0.00 | 0.00 | 60 | 1017.8 | |
| 20260505014016 | 19 | 0.0 | 3.2 | 0.00 | 0.00 | 0.00 | 59 | 1017.7 | |
| 20260505013017 | 19 | 0.0 | 3.2 | 0.00 | 0.00 | 0.00 | 59 | 1017.5 | |
| 20260505012016 | 19 | 0 | 3.2 | 8.0 | 0.00 | 0.00 | 0.00 | 58 | 1017.5 |
| 20260505011016 | 20 | 0 | 1.6 | 4.8 | 0.00 | 0.00 | 0.00 | 58 | 1017.4 |
| 20260505010016 | 20 | 0 | 1.6 | 12.9 | 0.00 | 0.00 | 0.00 | 57 | 1017.3 |
| 20260505005016 | 20 | 0 | 1.6 | 6.4 | 0.00 | 0.00 | 0.00 | 56 | 1017.1 |
| 20260505004016 | 21 | 0.0 | 3.2 | 0.00 | 0.00 | 0.00 | 55 | 1016.9 | |
| 20260505003016 | 21 | 0 | 1.6 | 4.8 | 0.00 | 0.00 | 0.00 | 53 | 1016.8 |
| 20260505002016 | 21 | 0.0 | 1.6 | 0.00 | 0.00 | 0.00 | 52 | 1016.6 | |
| 20260505001016 | 22 | 0.0 | 4.8 | 0.00 | 0.00 | 0.00 | 49 | 1016.4 | |
| 20260505000037 | 22 | 0.0 | 4.8 | 0.00 | 0.00 | 0.00 | 45 | 1016.3 | |
| 20260504235056 | 23 | 0.0 | 1.6 | 0.00 | 0.00 | 0.00 | 46 | 1016.1 | |
| 20260504234016 | 23 | 0.0 | 0.0 | 0.00 | 0.00 | 0.00 | 44 | 1016.0 | |
| 20260504233036 | 23 | 0.0 | 0.0 | 0.00 | 0.00 | 0.00 | 43 | 1016.0 | |
| 20260504232016 | 23 | 225 | 1.6 | 4.8 | 0.00 | 0.00 | 0.00 | 42 | 1015.9 |
| 20260504231016 | 24 | 225 | 1.6 | 4.8 | 0.00 | 0.00 | 0.00 | 42 | 1015.9 |
| 20260504230016 | 24 | 225 | 3.2 | 6.4 | 0.00 | 0.00 | 0.00 | 40 | 1016.1 |
| 20260504225036 | 24 | 225 | 3.2 | 9.7 | 0.00 | 0.00 | 0.00 | 38 | 1016.1 |
| 20260504224016 | 24 | 203 | 3.2 | 9.7 | 0.00 | 0.00 | 0.00 | 36 | 1016.1 |
| 20260504223016 | 25 | 225 | 6.4 | 12.9 | 0.00 | 0.00 | 0.00 | 33 | 1016.3 |
| 20260504222016 | 26 | 225 | 6.4 | 12.9 | 0.00 | 0.00 | 0.00 | 35 | 1016.2 |
| 20260504221016 | 26 | 248 | 9.7 | 19.3 | 0.00 | 0.00 | 0.00 | 32 | 1016.2 |
| 20260504220016 | 26 | 225 | 9.7 | 17.7 | 0.00 | 0.00 | 0.00 | 33 | 1016.2 |
| 20260504215016 | 26 | 248 | 3.2 | 9.7 | 0.00 | 0.00 | 0.00 | 33 | 1016.2 |
| 20260504214056 | 26 | 248 | 9.7 | 16.1 | 0.00 | 0.00 | 0.00 | 33 | 1016.1 |
| 20260504213016 | 26 | 225 | 8.0 | 14.5 | 0.00 | 0.00 | 0.00 | 31 | 1016.1 |
| 20260504212016 | 26 | 248 | 11.3 | 20.9 | 0.00 | 0.00 | 0.00 | 30 | 1016.0 |
| 20260504211036 | 26 | 225 | 8.0 | 19.3 | 0.00 | 0.00 | 0.00 | 31 | 1016.2 |
| 20260504210016 | 26 | 225 | 6.4 | 16.1 | 0.00 | 0.00 | 0.00 | 30 | 1016.2 |
| 20260504205016 | 26 | 225 | 8.0 | 17.7 | 0.00 | 0.00 | 0.00 | 30 | 1016.2 |
| 20260504204016 | 26 | 225 | 11.3 | 17.7 | 0.00 | 0.00 | 0.00 | 31 | 1016.2 |
| 20260504203036 | 26 | 225 | 4.8 | 14.5 | 0.00 | 0.00 | 0.00 | 32 | 1016.2 |
| 20260504202016 | 26 | 225 | 3.2 | 9.7 | 0.00 | 0.00 | 0.00 | 30 | 1016.4 |
| 20260504201016 | 26 | 248 | 9.7 | 17.7 | 0.00 | 0.00 | 0.00 | 31 | 1016.7 |
| 20260504200016 | 26 | 225 | 4.8 | 12.9 | 0.00 | 0.00 | 0.00 | 30 | 1016.8 |
| 20260504195016 | 26 | 270 | 6.4 | 14.5 | 0.00 | 0.00 | 0.00 | 30 | 1016.8 |
| 20260504194036 | 26 | 225 | 4.8 | 16.1 | 0.00 | 0.00 | 0.00 | 31 | 1017.2 |
| 20260504193016 | 25 | 225 | 6.4 | 14.5 | 0.00 | 0.00 | 0.00 | 31 | 1017.2 |
| 20260504192016 | 25 | 225 | 6.4 | 14.5 | 0.00 | 0.00 | 0.00 | 33 | 1017.3 |
| 20260504191016 | 25 | 225 | 6.4 | 14.5 | 0.00 | 0.00 | 0.00 | 29 | 1017.3 |
| 20260504190016 | 25 | 135 | 4.8 | 12.9 | 0.00 | 0.00 | 0.00 | 31 | 1017.5 |
| 20260504185016 | 25 | 225 | 4.8 | 12.9 | 0.00 | 0.00 | 0.00 | 32 | 1017.6 |
| 20260504184036 | 25 | 225 | 8.0 | 14.5 | 0.00 | 0.00 | 0.00 | 35 | 1017.8 |
| 20260504183016 | 25 | 248 | 6.4 | 17.7 | 0.00 | 0.00 | 0.00 | 32 | 1017.9 |
| 20260504182015 | 25 | 248 | 8.0 | 16.1 | 0.00 | 0.00 | 0.00 | 30 | 1017.9 |
| 20260504181016 | 25 | 225 | 8.0 | 17.7 | 0.00 | 0.00 | 0.00 | 32 | 1018.2 |
| 20260504180016 | 25 | 248 | 4.8 | 12.9 | 0.00 | 0.00 | 0.00 | 33 | 1018.2 |
| 20260504175016 | 25 | 248 | 8.0 | 14.5 | 0.00 | 0.00 | 0.00 | 35 | 1018.3 |
| 20260504174016 | 24 | 225 | 9.7 | 17.7 | 0.00 | 0.00 | 0.00 | 35 | 1018.2 |
| 20260504173016 | 23 | 248 | 3.2 | 11.3 | 0.00 | 0.00 | 0.00 | 38 | 1018.5 |
| 20260504172016 | 23 | 248 | 6.4 | 17.7 | 0.00 | 0.00 | 0.00 | 36 | 1018.6 |
| 20260504171015 | 23 | 225 | 8.0 | 14.5 | 0.00 | 0.00 | 0.00 | 35 | 1018.6 |
| 20260504151035 | 21 | 293 | 6.4 | 12.9 | 0.00 | 0.00 | 0.00 | 47 | 1019.7 |